{"data":{"norad_id":66799,"intl_designator":"2025-278J","name":"STARLINK-36044","alt_names":[],"object_type":"PAYLOAD","status":"ACTIVE","operator":null,"country":"US","launch_date":"2025-12-01","launch_site_code":"AFETR","launch_vehicle":null,"mission":null,"orbit_class":"UNKNOWN","rcs_meters":null,"size_class":null,"mass_kg":null,"dimensions":null,"purposes":["comms"],"wikipedia_slug":null,"has_3d_model":false,"image_url":null,"decayed_at":null,"tle_current":{"epoch":"2026-09-20T21:03:50.730336Z","epoch_age_seconds":54307,"freshness":"FRESH","line1":"1 66799U 25278J   26263.87767049  .00005455  00000+0  20760-3 0  9994","line2":"2 66799  42.9995  91.7801 0001560 271.6081  88.4592 15.27580827 45066","mean_motion":15.27580827,"eccentricity":0.000156,"inclination_deg":42.9995,"raan_deg":91.7801,"arg_perigee_deg":271.6081,"mean_anomaly_deg":88.4592,"bstar":0.0002076,"rev_number":4506,"period_min":94.266697679625,"perigee_km":481.97627506058,"apogee_km":484.11696434993,"semimajor_km":6861.1836197053,"source":"CELESTRAK","updated_at":"2026-09-21T09:00:36.014981Z"}}}